Regional Weather Roundup
Issued by NWS State College, PA

Home | Current Version | Previous Version | Graphics & Text | Print | Product List | Glossary Off
Versions: 1 2 3 4 5 6 7 8 9 10 11 12 13 14 15 16 17 18 19 20 21 22 23 24 25 26 27 28 29 30 31 32 33 34 35 36 37 38 39 40 41 42 43 44 45 46 47 48 49 50

000
ASUS41 KCTP 240110
RWRCTP

REGIONAL WEATHER ROUNDUP
NATIONAL WEATHER SERVICE STATE COLLEGE PA
900 PM EDT THU OCT 23 2014

Note: "fair" indicates few or no clouds below 12,000 feet with no
significant weather and/or obstructions to visibility.

* = STATION THAT DOES NOT REPORT PRECIPITATION /E.G. RAIN...SNOW...ETC/
    THUNDER OR FOG.

PAZ002>004-007>009-013>016-020>023-029>032-240200-
WESTERN PENNSYLVANIA

CITY           SKY/WX    TMP DP  RH WIND       PRES   REMARKS
ERIE           CLEAR     56  47  71 NW10      30.08S
MEADVILLE      CLEAR     46  42  86 W3        30.09S
FRANKLIN*      CLEAR     46  39  76 W5        30.09S
NEW CASTLE       N/A     48  43  83 CALM      30.11S
BEAVER COUNTY  CLEAR     48  43  81 NW7       30.10R
BUTLER*        CLEAR     48  39  71 W3        30.10S
PITTSBURGH INT CLEAR     49  42  77 NW8       30.09R
PITTSBURGH     CLEAR     52  39  61 NW9       30.07S
INDIANA*       CLEAR     50  39  66 NW5       30.09S
LATROBE        CLEAR     52  43  71 NW7       30.08R
WASHINGTON CO* CLEAR     50  41  71 CALM      30.11R
$$

PAZ004>006-010>012-017>019-024>028-033>037-041-042-045-046-049>053-240200-
CENTRAL PENNSYLVANIA

CITY           SKY/WX    TMP DP  RH WIND       PRES   REMARKS
BRADFORD       CLEAR     45  38  76 NW10      30.03R
DUBOIS         CLEAR     47  39  74 W9        30.03R
CLEARFIELD     CLEAR     50  38  63 NW10G17   30.01S
JOHNSTOWN      CLEAR     49  36  61 NW18G26   30.03R
ALTOONA        CLEAR     54  38  54 NW16G29   29.98S
STATE COLLEGE  CLOUDY    55  37  50 N8        29.97S
WILLIAMSPORT   CLOUDY    58  38  47 NW14G23   29.91S
SELINSGROVE    CLOUDY    59  40  49 N16G24    29.91S
FT INDIANTOWN  CLOUDY    57  46  65 VRB3      29.89R
CAPITAL CITY   CLOUDY    61  43  51 N7        29.89S
HARRISBURG     CLOUDY    59  43  55 N7        29.88S
YORK           CLOUDY    61  42  49 N9        29.89R
$$

PAZ038>040-043-044-047-048-054-055-060>062-067>071-240200-
EASTERN PENNSYLVANIA

CITY           SKY/WX    TMP DP  RH WIND       PRES   REMARKS
SCRANTON       LGT RAIN  50  43  77 N7        29.90R
MOUNT POCONO   LGT RAIN  44  41  89 N18G25    29.84R FOG
ALLENTOWN      CLOUDY    53  42  66 NW12G23   29.85S
QUAKERTOWN*    CLOUDY    50  43  76 NW10      29.86R
READING        CLOUDY    55  43  63 NW13      29.88R
LANCASTER      CLOUDY    55  45  68 NW10      29.89R
COATESVILLE    MOCLDY    54  45  71 NW9G20    29.87S
POTTSTOWN      CLOUDY    53  43  68 NW9G20    29.87R
BLUE BELL      CLOUDY    54  45  71 NW5       29.84R
DOYLESTOWN     MOCLDY    51  43  74 NW10G21   29.83R
WILLOW GROVE   NOT AVBL
NORTH PHILA    CLOUDY    55  42  61 NW12G21   29.86R
PHILADELPHIA   CLOUDY    55  43  63 N21       29.84S
$$



USA.gov is the U.S. government's official web portal to all federal, state and local government web resources and services.